Wind_Speed
21 22 22 21 21 21 21 21 21 21 20 20 20 19 18 18 20 20 20 19 19 18 18 17 17 17 16 16 16 16 16 15 15 15 15 15 15 15 15 15 15 16 16
22 22 22 22 22 22 22 22 22 22 22 22 22 21 20 20 20 21 21 21 21 20 20 20 19 19 18 17 18 18 18 17 17 17 17 17 17 17 17 17 17 18 18
23 22 22 23 23 23 23 24 24 24 23 23 23 23 22 21 20 21 22 22 22 22 22 21 21 21 20 19 19 20 20 19 19 19 19 19 19 19 19 19 19 19 19
24 24 23 24 25 24 25 25 26 25 25 24 23 23 23 22 22 21 21 21 22 22 22 22 22 22 21 22 22 21 21 21 21 20 20 21 21 20 20 20 21 21 22
25 25 24 25 25 25 25 26 26 26 26 25 25 24 23 23 23 23 22 23 23 23 23 23 23 22 22 22 22 22 23 22 22 22 22 22 22 22 23 23 24 24 24
24 25 24 24 26 26 26 26 26 27 27 26 27 26 24 24 23 23 23 23 24 25 25 24 24 24 23 23 23 23 23 24 24 24 24 24 24 24 25 26 26 27 27
24 24 24 25 25 25 26 26 27 27 27 28 27 26 25 25 25 25 25 24 24 26 26 26 24 25 25 25 25 24 24 24 25 26 26 26 26 26 27 28 28 29 29
23 23 24 25 25 25 26 26 26 27 27 27 27 27 26 26 26 27 26 26 25 25 26 26 26 26 27 27 26 25 25 26 27 27 28 28 28 28 29 29 30 31 31
23 23 24 25 26 27 27 27 27 27 28 28 27 28 28 27 27 28 28 27 27 27 26 26 28 28 27 27 27 27 27 27 28 29 30 30 30 30 30 31 32 33 33
23 24 25 25 26 27 27 28 27 28 28 29 29 29 29 29 29 28 28 29 28 28 28 28 29 29 29 28 28 29 29 30 30 31 31 30 30 31 32 33 34 34 34
24 25 26 26 27 27 28 28 28 28 29 30 30 30 30 30 30 29 29 30 30 29 29 29 29 29 30 30 31 30 30 31 31 31 32 32 32 33 34 34 34 35 36
24 25 25 26 26 27 28 27 28 28 29 30 30 31 31 31 31 30 30 30 31 31 30 30 30 31 31 31 32 31 32 32 33 33 33 34 34 35 35 34 35 35 36
25 25 26 27 27 27 27 27 28 29 29 30 30 31 31 31 31 30 30 30 31 31 31 31 31 32 32 32 32 33 33 32 33 33 34 34 35 34 34 35 35 35 36
26 26 27 27 28 28 28 28 28 29 30 29 30 30 30 30 30 30 30 30 31 31 31 31 31 32 32 32 32 33 33 33 33 32 34 34 34 34 34 35 35 35 36
27 27 27 28 28 28 28 29 28 28 28 29 29 30 30 30 30 30 30 30 30 30 30 31 31 31 31 31 31 32 32 32 32 32 34 34 34 34 34 34 35 36 37
28 28 28 28 29 29 29 29 29 28 28 28 28 28 29 29 29 29 30 30 29 29 29 29 29 29 30 30 30 31 31 32 33 33 34 34 34 34 35 36 37 36 35
28 29 29 29 29 29 29 29 29 28 28 27 27 27 27 27 27 27 28 29 29 29 30 30 29 29 30 29 29 31 32 32 32 33 32 33 33 34 34 35 35 34 33
30 30 30 30 29 29 29 29 28 28 27 27 27 26 26 26 26 27 28 28 28 28 28 29 29 29 29 28 29 30 31 31 31 31 32 32 32 32 32 32 32 32 32
29 29 29 29 28 28 28 28 27 26 25 25 25 25 25 25 24 25 25 25 25 25 26 27 28 28 28 28 27 27 28 29 28 28 29 30 30 29 30 30 30 31 32
27 27 27 26 26 25 25 25 25 24 24 23 23 23 22 22 22 22 22 22 22 23 24 25 25 25 25 25 25 26 26 26 25 26 27 28 28 29 28 28 29 30 29
24 24 24 24 23 23 23 23 22 22 22 22 21 21 21 20 20 20 19 19 19 20 20 21 21 20 20 21 22 23 22 22 24 25 26 27 27 26 26 26 27 26 25
22 22 21 21 21 20 20 20 19 19 19 19 19 19 18 18 17 17 17 17 17 18 17 17 18 18 18 18 19 19 20 21 22 23 23 23 23 22 22 22 22 21 21
19 19 18 18 17 17 16 16 16 16 16 15 15 16 15 15 15 15 15 15 15 14 14 14 14 14 14 15 16 17 18 19 19 19 19 19 19 19 19 18 18 19 19
17 17 16 15 15 15 15 14 13 13 13 13 13 12 12 12 12 12 12 11 11 11 12 12 12 13 13 13 14 14 14 15 15 15 15 15 15 15 15 16 16 16 17
14 14 14 13 13 13 13 14 12 12 12 11 10 10 10 10 10 10 10 9 9 9 10 10 10 10 10 11 11 11 11 11 10 11 11 12 13 13 13 14 14 15 15
10 10 10 11 10 11 11 11 10 10 10 9 9 8 7 7 8 9 8 7 7 7 8 8 8 7 8 7 7 6 7 7 8 8 9 10 10 11 12 12 13 14 15
Wind_Direction
257 259 260 262 264 267 268 268 270 269 270 270 271 270 267 268 266 262 261 261 261 262 263 265 264 262 261 261 261 261 261 261 262 263 264 265 267 271 272 273 274 276 278
258 260 262 261 263 264 265 267 269 270 270 270 269 269 267 267 266 262 260 260 260 261 262 264 264 263 262 261 260 260 262 262 261 263 265 266 268 269 271 272 275 277 279
258 261 262 262 263 265 265 267 267 270 270 270 269 268 266 266 267 265 262 261 260 261 261 263 263 261 260 261 262 261 262 262 262 264 266 268 269 269 269 272 276 278 279
259 262 263 262 263 265 266 267 267 269 270 270 269 267 265 263 265 264 263 262 261 260 261 263 262 260 261 262 262 261 262 262 262 265 266 269 270 271 271 274 276 277 279
260 262 262 263 263 265 267 267 267 267 268 267 267 267 268 266 264 264 264 263 260 258 262 263 261 259 261 264 263 261 262 263 264 266 266 267 269 270 272 274 277 278 279
258 260 262 265 266 266 267 267 267 266 265 265 267 267 267 265 265 264 264 263 260 258 260 260 260 259 260 263 263 261 261 263 265 266 266 266 268 270 272 273 275 277 278
261 262 265 266 266 266 267 268 267 265 265 264 265 265 265 265 264 265 264 262 262 260 258 259 259 258 259 261 261 262 262 264 266 267 266 266 268 271 272 273 275 277 279
263 265 266 266 264 265 267 267 266 265 265 264 264 264 264 264 265 265 265 264 263 261 257 258 257 258 258 259 261 263 264 265 266 266 267 267 268 270 271 273 275 277 279
266 266 266 266 265 265 266 267 268 265 265 265 264 263 263 263 265 266 265 263 262 262 261 260 257 258 258 259 260 262 263 265 266 265 266 266 268 271 273 276 278 279 281
269 268 269 267 266 265 266 267 267 265 263 264 264 264 264 264 265 264 264 262 262 262 262 261 257 258 258 259 260 260 262 265 266 265 265 266 268 271 273 276 278 280 281
270 270 270 269 269 269 268 268 268 267 264 264 265 265 265 264 265 264 263 263 262 262 261 259 257 258 257 257 260 260 262 263 264 265 266 267 270 272 273 276 278 279 281
271 270 271 270 270 270 270 270 270 270 267 265 265 266 266 265 264 265 264 262 261 262 262 260 258 257 258 259 259 260 261 263 263 263 264 266 268 269 272 275 277 279 281
272 270 270 270 270 270 271 271 271 270 269 267 266 267 266 265 264 264 265 263 261 261 261 261 259 259 258 259 261 262 262 263 262 262 264 266 267 269 272 274 277 280 281
272 271 270 270 270 271 272 272 271 270 268 268 267 267 266 265 264 265 265 265 263 262 261 260 258 258 258 260 262 262 262 263 262 264 266 268 269 271 273 274 276 279 280
271 271 271 270 270 271 271 270 270 271 270 268 267 267 266 265 265 264 264 263 261 260 261 260 257 255 257 258 259 260 259 261 263 265 265 266 268 270 272 274 276 280 282
271 270 270 270 270 270 269 269 269 270 270 270 269 268 267 265 264 264 263 262 262 261 260 259 257 256 258 257 258 258 259 262 263 263 265 268 269 272 274 276 279 282 283
271 270 269 270 269 268 268 268 268 269 270 269 268 267 267 267 265 264 263 262 260 260 258 258 256 256 257 257 257 258 260 262 264 266 268 271 273 274 276 277 280 281 283
271 270 269 268 268 267 268 266 266 269 269 267 266 266 266 266 265 264 263 262 260 259 258 256 255 255 255 257 258 260 261 264 265 267 271 274 275 276 278 280 280 282 285
271 270 270 269 267 266 265 264 265 267 267 266 264 265 266 265 264 263 263 262 260 258 256 257 256 256 255 255 257 261 263 265 266 270 272 276 276 277 280 282 284 286 287
271 270 270 269 267 265 265 264 265 266 266 264 264 264 264 263 262 262 261 261 259 257 256 255 256 255 254 256 258 261 263 266 269 271 274 276 278 282 284 285 288 290 291
270 268 268 267 266 265 264 264 265 265 265 264 262 261 262 261 260 260 261 259 257 255 253 253 252 253 254 258 259 263 264 267 272 275 278 280 282 285 286 288 290 293 295
266 265 265 264 265 264 261 261 261 262 264 261 258 259 259 258 254 253 254 256 255 254 252 251 253 254 257 258 261 265 269 273 277 281 283 284 285 287 290 293 295 297 298
265 264 263 261 260 261 258 256 257 259 261 259 259 261 259 257 256 254 254 255 254 251 252 256 256 257 259 263 267 271 275 278 282 285 288 290 291 293 296 298 300 301 303
263 261 260 257 255 253 250 249 251 256 256 258 260 263 260 256 249 248 247 248 249 250 253 254 255 261 265 269 272 275 280 285 287 290 293 298 300 301 302 304 306 308 309
259 257 255 252 247 243 239 241 248 249 247 252 258 256 253 250 244 244 247 252 249 245 248 253 258 266 271 272 278 284 288 289 294 299 303 306 309 310 311 314 314 314 314
250 247 248 242 239 241 239 236 237 242 242 245 248 248 245 245 244 242 245 249 249 253 256 258 259 269 274 276 282 290 300 306 308 310 312 315 318 320 321 322 322 321 320
Height
5873 5874 5875 5875 5876 5876 5877 5877 5877 5877 5878 5878 5878 5878 5878 5879 5879 5880 5880 5881 5881 5882 5882 5883 5883 5883 5884 5885 5885 5886 5886 5887 5887 5887 5887 5888 5888 5888 5888 5888 5888 5888 5887
5869 5870 5870 5871 5871 5871 5872 5872 5872 5872 5873 5873 5873 5874 5874 5874 5874 5875 5876 5877 5877 5878 5878 5879 5879 5880 5880 5881 5881 5882 5882 5883 5883 5883 5884 5884 5884 5884 5884 5884 5884 5884 5883
5864 5865 5865 5866 5866 5866 5867 5867 5867 5867 5868 5868 5868 5868 5869 5869 5870 5871 5871 5872 5873 5873 5874 5875 5875 5875 5876 5877 5877 5878 5878 5879 5879 5879 5880 5880 5880 5880 5880 5880 5880 5879 5879
5859 5860 5860 5861 5861 5861 5862 5862 5862 5862 5863 5863 5863 5863 5864 5864 5865 5866 5866 5867 5868 5868 5869 5870 5870 5871 5871 5872 5873 5873 5874 5874 5875 5875 5875 5875 5875 5876 5875 5875 5875 5874 5874
5853 5854 5855 5855 5855 5856 5856 5856 5856 5857 5857 5858 5858 5858 5858 5859 5860 5861 5861 5862 5862 5863 5864 5865 5865 5866 5866 5867 5867 5868 5869 5869 5870 5870 5870 5870 5870 5870 5870 5870 5869 5869 5868
5848 5849 5849 5849 5849 5850 5850 5850 5850 5851 5852 5852 5853 5853 5853 5854 5855 5856 5856 5857 5857 5858 5858 5859 5860 5861 5861 5862 5862 5863 5863 5864 5864 5864 5865 5865 5865 5865 5865 5864 5863 5863 5862
5842 5843 5843 5843 5843 5844 5844 5844 5844 5845 5846 5846 5847 5847 5847 5848 5849 5850 5851 5851 5852 5852 5853 5854 5854 5855 5856 5856 5857 5857 5858 5858 5858 5859 5859 5859 5859 5859 5859 5858 5857 5856 5856
5837 5837 5837 5837 5837 5838 5838 5838 5838 5838 5839 5840 5840 5841 5842 5843 5843 5844 5844 5845 5846 5846 5847 5848 5848 5849 5850 5850 5851 5851 5852 5852 5852 5853 5853 5853 5853 5853 5852 5851 5850 5849 5848
5831 5831 5831 5831 5831 5831 5831 5832 5832 5832 5833 5833 5834 5835 5836 5837 5837 5838 5838 5839 5839 5840 5840 5841 5842 5842 5843 5844 5845 5845 5846 5846 5846 5846 5846 5846 5846 5846 5845 5844 5843 5842 5841
5824 5824 5824 5824 5824 5824 5824 5825 5825 5825 5826 5826 5827 5828 5829 5829 5830 5831 5831 5832 5833 5833 5834 5834 5835 5836 5837 5837 5838 5839 5839 5839 5839 5839 5839 5839 5838 5838 5837 5836 5835 5834 5833
5818 5818 5818 5818 5817 5817 5817 5818 5818 5818 5818 5819 5820 5820 5821 5822 5823 5823 5824 5825 5825 5826 5827 5827 5828 5829 5829 5830 5831 5832 5832 5832 5832 5832 5832 5831 5831 5831 5830 5829 5827 5826 5825
5811 5811 5810 5810 5810 5810 5810 5810 5810 5811 5811 5812 5812 5813 5813 5814 5815 5816 5817 5817 5818 5819 5819 5820 5821 5821 5822 5823 5824 5824 5825 5825 5825 5824 5824 5824 5823 5822 5822 5820 5819 5818 5816
5803 5803 5803 5803 5803 5803 5803 5803 5803 5803 5803 5804 5805 5805 5806 5807 5807 5808 5809 5809 5810 5811 5812 5813 5813 5814 5815 5815 5816 5817 5817 5817 5817 5816 5816 5816 5815 5814 5813 5812 5811 5809 5807
5796 5796 5796 5796 5795 5795 5795 5795 5795 5795 5796 5796 5797 5797 5798 5799 5799 5800 5801 5802 5802 5803 5804 5805 5806 5806 5807 5808 5808 5809 5809 5809 5809 5809 5809 5808 5807 5806 5805 5804 5803 5801 5799
5788 5788 5788 5788 5788 5788 5787 5788 5788 5788 5788 5789 5789 5790 5790 5791 5791 5792 5793 5794 5795 5795 5796 5797 5798 5799 5800 5800 5800 5801 5801 5801 5801 5801 5801 5800 5800 5799 5797 5796 5795 5793 5791
5780 5780 5780 5780 5779 5779 5779 5780 5780 5780 5781 5781 5781 5782 5782 5783 5784 5785 5785 5786 5787 5788 5788 5789 5790 5791 5791 5792 5793 5793 5794 5794 5794 5794 5794 5793 5792 5791 5790 5788 5787 5785 5783
5771 5771 5771 5771 5771 5771 5771 5772 5772 5772 5773 5773 5774 5774 5775 5775 5776 5777 5778 5779 5780 5781 5781 5782 5782 5783 5784 5784 5785 5786 5787 5787 5787 5787 5786 5785 5784 5783 5782 5780 5779 5777 5775
5762 5762 5762 5763 5763 5763 5763 5764 5764 5765 5765 5766 5766 5767 5768 5768 5769 5770 5771 5772 5773 5773 5774 5775 5775 5776 5776 5778 5778 5779 5779 5780 5779 5779 5779 5778 5777 5775 5774 5773 5771 5769 5767
5753 5753 5753 5754 5754 5755 5755 5756 5757 5758 5758 5759 5759 5760 5760 5761 5762 5763 5764 5765 5766 5766 5767 5768 5769 5769 5770 5771 5772 5773 5773 5773 5772 5772 5772 5771 5770 5768 5767 5765 5764 5762 5760
5745 5745 5745 5746 5746 5747 5748 5749 5750 5751 5751 5752 5752 5753 5754 5755 5755 5756 5757 5758 5759 5760 5761 5762 5763 5764 5764 5765 5766 5767 5767 5767 5766 5766 5765 5764 5763 5762 5760 5759 5757 5755 5753
5738 5738 5738 5739 5740 5741 5742 5743 5744 5744 5745 5746 5746 5747 5748 5749 5750 5751 5752 5753 5754 5755 5756 5757 5758 5759 5759 5760 5761 5761 5761 5761 5761 5760 5759 5758 5757 5756 5754 5753 5751 5749 5747
5731 5731 5732 5733 5734 5735 5736 5737 5738 5739 5740 5740 5741 5742 5743 5744 5745 5746 5747 5748 5750 5751 5751 5752 5754 5754 5755 5756 5756 5757 5757 5756 5756 5756 5754 5753 5752 5750 5749 5747 5745 5744 5742
5725 5725 5726 5727 5728 5730 5731 5733 5734 5735 5736 5736 5737 5738 5739 5740 5741 5742 5743 5744 5745 5746 5748 5749 5750 5750 5751 5752 5752 5752 5752 5752 5751 5750 5749 5748 5747 5745 5744 5742 5741 5739 5738
5719 5720 5722 5723 5724 5725 5727 5729 5730 5731 5732 5733 5734 5735 5736 5737 5738 5739 5740 5741 5742 5743 5744 5745 5746 5747 5747 5748 5748 5748 5748 5747 5747 5746 5745 5744 5743 5742 5740 5739 5737 5736 5734
5715 5716 5717 5719 5720 5722 5724 5725 5727 5728 5729 5731 5732 5732 5733 5734 5735 5737 5738 5739 5740 5741 5742 5742 5743 5744 5744 5744 5745 5745 5745 5744 5744 5743 5742 5741 5740 5739 5737 5736 5734 5733 5731
5712 5713 5715 5716 5718 5719 5721 5723 5724 5726 5727 5728 5730 5731 5731 5732 5734 5735 5736 5737 5738 5739 5740 5740 5741 5741 5742 5742 5742 5742 5742 5742 5742 5741 5740 5739 5738 5737 5735 5734 5732 5730 5728